Weather History for Elizabeth City, NC

Change the Weather History Date:

Wednesday, May 14, 2014

  Actual Average Record
Temperature  
Mean Temperature 77 °F 66 °F  
Max Temperature 87 °F 76 °F 95 °F (1956)
Min Temperature 66 °F 56 °F 40 °F (2008)
Degree Days  
Heating Degree Days 0 2  
Month to date heating degree days 7 47  
Since 1 July heating degree days 3318 3208  
Cooling Degree Days 12 3  
Month to date cooling degree days 94 36  
Year to date cooling degree days 123 78  
Growing Degree Days 27 (Base 50)    
Moisture  
Dew Point 67 °F    
Average Humidity 71    
Maximum Humidity 90    
Minimum Humidity 51    
Precipitation  
Precipitation 0.00 in 0.11 in 1.77 in (1979)
Month to date precipitation 0.13 1.49  
Year to date precipitation 12.76 15.05  
Snow  
Snow 0.00 in - 0.00 in (2002)
Month to date snowfall 0.0  
Since 1 July snowfall 10.2  
Snow Depth 0.00 in    
Sea Level Pressure  
Sea Level Pressure 30.15 in    
Wind  
Wind Speed 6 mph (South)    
Max Wind Speed 17 mph    
Max Gust Speed 21 mph    
Visibility 10 miles    
Events      
T = Trace of Precipitation, MM = Missing Value Source: NWS Daily Summary

Daily Weather History Graph

Daily Weather History Graph

Search for Another Location

Airport:

Trip Planner

Search our weather history database for the weather conditions in past years. The results will help you decide how hot, cold, wet, or windy it might be!

Date:

Astronomy

May. 14, 2014 Rise Set
Actual Time 5:59 AM EDT 8:03 PM EDT
Civil Twilight 5:30 AM EDT 8:32 PM EDT
Nautical Twilight 4:55 AM EDT 9:06 PM EDT
Astronomical Twilight 4:18 AM EDT 9:44 PM EDT
Moon 8:07 PM EDT (5/14) 5:54 AM EDT (5/14)
Length of Visible Light 15h 01m
Length of Day
14h 04m
Full, 100% of the Moon is Illuminated
May 14
Full
May 14
Full
May 21
Last Quarter
May 28
New
Jun 5
First Quarter

Hourly Weather History & Observations

Time (EDT) Temp. Heat Index Dew Point Humidity Pressure Visibility Wind Dir Wind Speed Gust Speed Precip Events Conditions
12:54 AM 73.0 °F - 66.9 °F 81% 30.14 in 10.0 mi SW 9.2 mph - N/A   Clear
1:54 AM 71.1 °F - 66.0 °F 84% 30.13 in 10.0 mi SSW 5.8 mph - N/A   Clear
2:54 AM 72.0 °F - 64.9 °F 78% 30.12 in 10.0 mi SSW 3.5 mph - N/A   Clear
3:54 AM 69.1 °F - 64.9 °F 87% 30.12 in 10.0 mi Calm Calm - N/A   Clear
4:54 AM 70.0 °F - 66.0 °F 87% 30.13 in 10.0 mi Calm Calm - N/A   Clear
5:54 AM 68.0 °F - 64.9 °F 90% 30.15 in 10.0 mi Calm Calm - N/A   Clear
6:54 AM 70.0 °F - 66.0 °F 87% 30.16 in 10.0 mi SSW 3.5 mph - N/A   Clear
7:54 AM 73.0 °F - 66.9 °F 81% 30.17 in 10.0 mi SW 4.6 mph - N/A   Clear
8:54 AM 75.9 °F - 66.9 °F 74% 30.18 in 10.0 mi WSW 6.9 mph - N/A   Clear
9:54 AM 79.0 °F - 68.0 °F 69% 30.18 in 10.0 mi Variable 3.5 mph - N/A   Clear
11:54 AM 82.0 °F 85.9 °F 70.0 °F 67% 30.18 in 10.0 mi Variable 5.8 mph - N/A   Partly Cloudy
12:54 PM 84.0 °F 88.4 °F 70.0 °F 63% 30.17 in 10.0 mi SSW 5.8 mph - N/A   Clear
1:54 PM 86.0 °F 89.4 °F 68.0 °F 55% 30.16 in 10.0 mi Variable 3.5 mph - N/A   Partly Cloudy
2:54 PM 86.0 °F 89.4 °F 68.0 °F 55% 30.14 in 10.0 mi East 10.4 mph - N/A   Partly Cloudy
3:54 PM 84.9 °F 89.4 °F 70.0 °F 61% 30.13 in 10.0 mi ESE 12.7 mph - N/A   Partly Cloudy
4:54 PM 84.9 °F 88.8 °F 69.1 °F 59% 30.12 in 10.0 mi ESE 12.7 mph - N/A   Clear
5:54 PM 84.0 °F 85.4 °F 64.0 °F 51% 30.12 in 10.0 mi SE 10.4 mph - N/A   Clear
6:54 PM 82.0 °F 83.4 °F 64.0 °F 54% 30.12 in 10.0 mi SSE 6.9 mph - N/A   Clear
7:54 PM 79.0 °F - 64.9 °F 62% 30.12 in 10.0 mi South 9.2 mph - N/A   Clear
8:54 PM 75.9 °F - 64.0 °F 67% 30.14 in 10.0 mi South 10.4 mph - N/A   Clear
9:54 PM 73.9 °F - 66.0 °F 76% 30.16 in 10.0 mi South 9.2 mph - N/A   Clear
10:54 PM 73.9 °F - 68.0 °F 82% 30.17 in 10.0 mi South 6.9 mph - N/A   Clear
11:54 PM 73.0 °F - 68.0 °F 84% 30.17 in 10.0 mi South 6.9 mph - N/A   Clear